Orbital Elements at Epoch 2459200.5 (2020-Dec-17.0) TDB
Reference: JPL 15 (heliocentric ecliptic J2000)
Element | Value | Uncertainty (1-sigma) | Units |
e | .08794645013503979 | 6.974e-08 | |
a | 2.568480288186131 | 1.4398e-08 | au |
q | 2.342591564598337 | 1.8039e-07 | au |
i | 1.236250020787588 | 6.4847e-06 | deg |
node | 64.46792659896427 | 0.00033938 | deg |
peri | 76.36328135062689 | 0.00034623 | deg |
M | 175.7015586890083 | 6.6755e-05 | deg |
tp | 2458466.686164212122 (2018-Dec-14.18616421) | 0.00027843 | TDB |
period | 1503.53236963152 4.12 | 1.2642e-05 3.461e-08 | d yr |
n | .2394361486798102 | 2.0133e-09 | deg/d |
Q | 2.794369011773925 | 1.5664e-08 | au |
|
| | Orbit Determination Parameters
Additional Information
|